When you browse on this site, cookies collect data to enhance your experience and personalize the content and advertising you see.
Visit our Privacy Policy to learn more. By continuing to use the site, you agree to this use of cookies and data.
  • In Austria
  • List of Countries
  • For 7 days
  • Water Temperature
  • Weather Map
  • News
  • Weather Widgets
  • user-avatar
    Login

    Hourly Weather Mazari Sharif

    Today, 5 June, Friday

    Time Temperature Precipitation Wind Pressure Humidity
    00:00 +26°C° 0 mm 2 mps 654 mmHg 19%
    01:00 +26°C° 0 mm 2 mps 653 mmHg 20%
    02:00 +25°C° 0 mm 2 mps 653 mmHg 21%
    03:00 +25°C° 0 mm 2 mps 653 mmHg 22%
    04:00 +24°C° 0 mm 2 mps 652 mmHg 22%
    05:00 +26°C° 0 mm 2 mps 653 mmHg 20%
    06:00 +27°C° 0 mm 2 mps 654 mmHg 18%
    07:00 +29°C° 0 mm 2 mps 655 mmHg 17%
    08:00 +30°C° 0 mm 2 mps 655 mmHg 16%
    09:00 +33°C° 0 mm 3 mps 655 mmHg 15%
    10:00 +34°C° 0 mm 3 mps 656 mmHg 14%
    11:00 +35°C° 0 mm 4 mps 656 mmHg 13%
    12:00 +36°C° 0 mm 5 mps 656 mmHg 12%
    13:00 +38°C° 0 mm 6 mps 656 mmHg 11%
    14:00 +38°C° 0 mm 6 mps 655 mmHg 10%
    15:00 +38°C° 0 mm 7 mps 655 mmHg 10%
    16:00 +38°C° 0 mm 7 mps 655 mmHg 10%
    17:00 +35°C° 0 mm 6 mps 655 mmHg 11%
    18:00 +34°C° 0 mm 5 mps 654 mmHg 13%
    19:00 +32°C° 0 mm 4 mps 654 mmHg 15%
    20:00 +30°C° 0 mm 4 mps 654 mmHg 16%
    21:00 +29°C° 0 mm 3 mps 654 mmHg 18%
    22:00 +28°C° 0 mm 2 mps 654 mmHg 19%
    23:00 +27°C° 0 mm 2 mps 653 mmHg 19%

    Tomorrow, 6 June, Saturday

    Time Temperature Precipitation Wind Pressure Humidity
    00:00 +26°C° 0 mm 3 mps 653 mmHg 19%
    01:00 +26°C° 0 mm 3 mps 653 mmHg 19%
    02:00 +25°C° 0 mm 3 mps 653 mmHg 21%
    03:00 +25°C° 0 mm 4 mps 653 mmHg 22%
    04:00 +23°C° 0 mm 4 mps 653 mmHg 23%
    05:00 +25°C° 0 mm 5 mps 653 mmHg 23%
    06:00 +26°C° 0 mm 6 mps 654 mmHg 23%
    07:00 +28°C° 0 mm 7 mps 654 mmHg 23%
    08:00 +29°C° 0 mm 7 mps 655 mmHg 20%
    09:00 +31°C° 0 mm 8 mps 655 mmHg 18%
    10:00 +32°C° 0 mm 8 mps 656 mmHg 15%
    11:00 +33°C° 0 mm 8 mps 656 mmHg 14%
    12:00 +33°C° 0 mm 9 mps 655 mmHg 12%
    13:00 +34°C° 0 mm 9 mps 655 mmHg 11%
    14:00 +34°C° 0 mm 9 mps 655 mmHg 11%
    15:00 +34°C° 0 mm 8 mps 655 mmHg 12%
    16:00 +34°C° 0 mm 8 mps 655 mmHg 12%
    17:00 +32°C° 0 mm 7 mps 654 mmHg 13%
    18:00 +30°C° 0 mm 6 mps 654 mmHg 14%
    19:00 +29°C° 0 mm 4 mps 654 mmHg 15%
    20:00 +28°C° 0 mm 4 mps 654 mmHg 16%
    21:00 +27°C° 0 mm 4 mps 654 mmHg 17%
    22:00 +26°C° 0 mm 4 mps 654 mmHg 18%
    23:00 +25°C° 0 mm 4 mps 654 mmHg 19%

    Day after tomorrow, 7 June, Sunday

    Time Temperature Precipitation Wind Pressure Humidity
    00:00 +23°C° 0 mm 4 mps 653 mmHg 19%
    01:00 +23°C° 0 mm 4 mps 653 mmHg 20%
    02:00 +22°C° 0 mm 4 mps 653 mmHg 19%
    03:00 +22°C° 0 mm 4 mps 653 mmHg 18%
    04:00 +21°C° 0 mm 4 mps 653 mmHg 18%
    05:00 +23°C° 0 mm 4 mps 653 mmHg 16%
    06:00 +25°C° 0 mm 4 mps 654 mmHg 14%
    07:00 +26°C° 0 mm 5 mps 655 mmHg 13%
    08:00 +28°C° 0 mm 5 mps 655 mmHg 11%
    09:00 +29°C° 0 mm 6 mps 656 mmHg 10%
    10:00 +32°C° 0 mm 6 mps 656 mmHg 9%
    11:00 +32°C° 0 mm 7 mps 656 mmHg 8%
    12:00 +33°C° 0 mm 7 mps 656 mmHg 8%
    13:00 +33°C° 0 mm 7 mps 656 mmHg 8%
    14:00 +33°C° 0 mm 6 mps 655 mmHg 9%
    15:00 +33°C° 0 mm 6 mps 655 mmHg 10%
    16:00 +33°C° 0 mm 6 mps 655 mmHg 11%
    17:00 +32°C° 0 mm 5 mps 655 mmHg 12%
    18:00 +29°C° 0 mm 5 mps 655 mmHg 14%
    19:00 +28°C° 0 mm 4 mps 654 mmHg 15%
    20:00 +27°C° 0 mm 4 mps 654 mmHg 16%
    21:00 +26°C° 0 mm 3 mps 654 mmHg 17%
    22:00 +25°C° 0 mm 2 mps 654 mmHg 18%
    23:00 +24°C° 0 mm 2 mps 654 mmHg 19%

    8 June, Monday

    Time Temperature Precipitation Wind Pressure Humidity
    00:00 +24°C° 0 mm 2 mps 653 mmHg 20%
    01:00 +23°C° 0 mm 2 mps 653 mmHg 21%
    02:00 +23°C° 0 mm 2 mps 653 mmHg 21%
    03:00 +21°C° 0 mm 3 mps 653 mmHg 22%
    04:00 +21°C° 0 mm 3 mps 653 mmHg 23%
    05:00 +22°C° 0 mm 3 mps 653 mmHg 22%
    06:00 +24°C° 0 mm 3 mps 654 mmHg 20%
    07:00 +26°C° 0 mm 3 mps 655 mmHg 19%
    08:00 +26°C° 0 mm 3 mps 655 mmHg 19%
    09:00 +27°C° 0 mm 3 mps 655 mmHg 19%
    10:00 +28°C° 0 mm 3 mps 655 mmHg 19%
    11:00 +29°C° 0 mm 4 mps 655 mmHg 19%
    12:00 +30°C° 0 mm 4 mps 655 mmHg 19%
    13:00 +30°C° 0 mm 5 mps 655 mmHg 18%
    14:00 +30°C° 0 mm 5 mps 655 mmHg 19%
    15:00 +30°C° 0 mm 5 mps 655 mmHg 20%
    16:00 +30°C° 0 mm 5 mps 654 mmHg 21%
    17:00 +29°C° 0 mm 4 mps 654 mmHg 23%
    18:00 +28°C° 0 mm 3 mps 654 mmHg 25%
    19:00 +27°C° 0 mm 3 mps 654 mmHg 28%
    20:00 +26°C° 0 mm 2 mps 654 mmHg 29%
    21:00 +25°C° 0 mm 1 mps 654 mmHg 31%
    22:00 +25°C° 0 mm 1 mps 654 mmHg 33%
    23:00 +24°C° 0 mm 1 mps 654 mmHg 34%

    9 June, Tuesday

    Time Temperature Precipitation Wind Pressure Humidity
    00:00 +23°C° 0 mm 1 mps 654 mmHg 35%
    01:00 +23°C° 0 mm 1 mps 653 mmHg 37%
    02:00 +22°C° 0 mm 1 mps 653 mmHg 38%
    03:00 +22°C° 0 mm 1 mps 653 mmHg 40%
    04:00 +21°C° 0 mm 1 mps 653 mmHg 41%
    05:00 +23°C° 0 mm 1 mps 654 mmHg 38%
    06:00 +24°C° 0 mm 1 mps 655 mmHg 35%
    07:00 +26°C° 0 mm 2 mps 656 mmHg 32%
    08:00 +27°C° 0 mm 2 mps 656 mmHg 30%
    09:00 +27°C° 0 mm 2 mps 656 mmHg 29%
    10:00 +28°C° 0 mm 3 mps 657 mmHg 28%
    11:00 +29°C° 0 mm 3 mps 656 mmHg 26%
    12:00 +29°C° 0 mm 3 mps 656 mmHg 25%
    13:00 +30°C° 0 mm 3 mps 656 mmHg 23%
    14:00 +30°C° 0 mm 4 mps 656 mmHg 23%
    15:00 +30°C° 0 mm 4 mps 656 mmHg 22%
    16:00 +30°C° 0 mm 4 mps 656 mmHg 22%
    17:00 +29°C° 0 mm 3 mps 656 mmHg 23%
    18:00 +28°C° 0 mm 3 mps 656 mmHg 25%
    19:00 +27°C° 0 mm 2 mps 655 mmHg 27%
    20:00 +27°C° 0 mm 2 mps 655 mmHg 26%
    21:00 +26°C° 0 mm 2 mps 655 mmHg 25%
    22:00 +25°C° 0 mm 2 mps 655 mmHg 24%
    23:00 +25°C° 0 mm 2 mps 655 mmHg 23%

    10 June, Wednesday

    Time Temperature Precipitation Wind Pressure Humidity
    00:00 +24°C° 0 mm 2 mps 655 mmHg 22%
    01:00 +23°C° 0 mm 2 mps 654 mmHg 22%
    02:00 +22°C° 0 mm 1 mps 654 mmHg 22%
    03:00 +21°C° 0 mm 1 mps 654 mmHg 23%
    04:00 +21°C° 0 mm 1 mps 654 mmHg 23%
    05:00 +22°C° 0 mm 1 mps 655 mmHg 21%
    06:00 +24°C° 0 mm 2 mps 656 mmHg 18%
    07:00 +26°C° 0 mm 2 mps 656 mmHg 16%
    08:00 +27°C° 0 mm 2 mps 657 mmHg 15%
    09:00 +28°C° 0 mm 3 mps 657 mmHg 14%
    10:00 +29°C° 0 mm 3 mps 657 mmHg 13%
    11:00 +29°C° 0 mm 4 mps 657 mmHg 12%
    12:00 +30°C° 0 mm 4 mps 657 mmHg 12%
    13:00 +30°C° 0 mm 5 mps 657 mmHg 12%
    14:00 +30°C° 0 mm 5 mps 657 mmHg 12%
    15:00 +30°C° 0 mm 5 mps 657 mmHg 12%
    16:00 +30°C° 0 mm 6 mps 657 mmHg 12%
    17:00 +29°C° 0 mm 5 mps 656 mmHg 13%
    18:00 +27°C° 0 mm 4 mps 656 mmHg 14%
    19:00 +26°C° 0 mm 3 mps 656 mmHg 15%
    20:00 +25°C° 0 mm 3 mps 656 mmHg 16%
    21:00 +24°C° 0 mm 2 mps 656 mmHg 17%
    22:00 +22°C° 0 mm 1 mps 656 mmHg 19%
    23:00 +22°C° 0 mm 1 mps 655 mmHg 20%
    Show more